www.pogodaiklimat.ru

Погода и климат >> Архив погоды >> Россия >> Астраханская область >> Лиман


ПОГОДА в Лимане

  • Прогноз погоды в Лимане
  • Монитор погоды в Лимане

АРХИВ ПОГОДЫ в Лимане

Время (UTC), дата Ветер
(напр.,м/с)
 
Видим.   Явления Облачность Т
(С)
Тd
(С)
f
(%)
Тe
(С)
Тes
(С)
Комфортность P
(гПа)
Po
(гПа)
Тmin
(С)
Tmax
(С)
R
(мм)
R24
(мм)
S
(см)
18 13.07 штиль 0 20 км 3/0
[Ci fib]
+19.0 +13.2 69 +20 +20 1010.3 1012.1
21 13.07 СЗ 1 20 км 10/0
[Ac As]
+18.3 +13.1 72 +20 +20 1009.8 1011.6
00 14.07 ЮЗ 1 20 км 10/0
[Ac As]
+18.5 +13.6 73 +20 +20 1009.7 1011.5
03 14.07 З 1 20 км 10/0
[Ac As]
+19.1 +13.8 71 +21 +22 комфорт 1009.5 1011.3 +17.9
06 14.07 ЮВ 2 20 км 10/0
[Ac As]
+21.9 +12.4 55 +24 +28 комфорт 1010.0 1011.8
09 14.07 Ю 3 10 км слаб. дождь 10/0
[As op]
+21.1 +15.0 68 +24 +27 комфорт 1010.2 1012.0
12 14.07 ЮВ 3 20 км {дождь} 10/3 600 м
[Sc Ac As]
+22.2 +15.0 64 +26 +28 душно 1010.4 1012.2
15 14.07 ЮВ 4 20 км ясно +23.1 +13.9 56 +27 +27 душно 1009.8 1011.6 +23.8 0.0
18 14.07 ЮВ 2 20 км ясно +19.0 +13.8 72 +21 +21 комфорт 1009.6 1011.4
21 14.07 Ю 2 20 км 3/0
[Ci fib]
+18.4 +15.3 82 +19 +19 1009.2 1011.0
00 15.07 Ю 2 20 км 4/0
[Ac trans Ci sp]
+17.2 +14.0 81 +18 +18 1008.8 1010.6
03 15.07 ЮЗ 2 20 км 1/0
[Ac trans]
+18.4 +14.7 79 +19 +21 1008.9 1010.7 +16.4
06 15.07 штиль 0 20 км 3/0
[Ac trans]
+26.8 +13.4 44 +29 +42 жарко 1008.8 1010.6
09 15.07 В 3 20 км 1/1 600 м
[Cu hum]
+29.1 +10.1 31 +29 +43 жарко 1008.1 1009.9
12 15.07 В 3 20 км 1/1 600 м
[Cu hum]
+29.0 +11.3 33 +30 +38 жарко 1007.4 1009.2
15 15.07 В 3 20 км ясно +26.5 +13.3 44 +28 +29 жарко 1007.2 1009.0 +30.0
18 15.07 В 1 20 км 3/0
[Ac lent]
+21.3 +16.0 72 +25 +25 комфорт 1007.2 1009.0
21 15.07 СВ 1 20 км 9/0
[Ac und]
+20.2 +15.5 74 +24 +24 комфорт 1006.7 1008.5
00 16.07 СВ 1 20 км 10/0
[Ac As]
+20.6 +15.8 74 +25 +25 комфорт 1006.0 1007.8
03 16.07 С 1 20 км гроза без осадков {ливн. осадки} 10/10 600 м
[Cb cap]
+20.5 +17.3 82 +25 +25 комфорт 1005.8 1007.6 +19.6 0.5
06 16.07 С 1 20 км {гроза, ливн. осадки} 10/10 600 м
[Cb cap]
+21.4 +18.7 85 +26 +26 душно 1005.8 1007.6 +18.5
09 16.07 С 3 20 км {гроза} 8/8 600 м
[Cb cap]
+25.2 +20.0 73 +31 +34 очень
душно
1005.7 1007.5
12 16.07 СВ 2 20 км {гроза} 8/5 600 м
[Sc diur, vesp Ci fib]
+27.5 +18.0 56 +32 +37 очень
душно
1004.6 1006.3
15 16.07 СВ 1 20 км 3/3 600 м
[Sc]
+27.1 +17.9 57 +32 +33 очень
душно
1005.2 1006.9 +28.5 7
18 16.07 С 1 20 км 1/0
[Ci fib]
+20.4 +17.6 84 +25 +25 комфорт 1006.5 1008.3
21 16.07 СЗ 2 20 км ясно +18.6 +16.9 90 +20 +20 1006.8 1008.6
00 17.07 З 3 20 км 4/0
[Ci fib]
+18.1 +16.3 89 +18 +18 1007.2 1009.0
03 17.07 З 3 20 км 1/0
[Ci sp]
+20.6 +16.5 77 +24 +26 комфорт 1007.4 1009.2 +17.6
06 17.07 З 4 20 км ясно +26.0 +16.2 55 +29 +38 душно 1007.8 1009.5
09 17.07 СЗ 3 20 км 1/0
[Ci fib]
+30.3 +14.1 37 +32 +47 жарко 1006.8 1008.5
12 17.07 СЗ 2 20 км 1/0
[Ac cast]
+32.4 +12.7 30 +33 +43 жарко 1006.5 1008.2
15 17.07 СЗ 1 20 км ясно +31.4 +13.1 33 +32 +34 жарко 1006.1 1007.8 +32.7
18 17.07 З 2 20 км 1/0
[Ac cast]
+26.0 +13.4 46 +28 +28 жарко 1006.8 1008.5
21 17.07 С 1 20 км ясно +22.1 +15.3 65 +26 +26 душно 1007.2 1009.0
00 18.07 С 2 20 км 8/0
[Cs]
+19.7 +15.7 78 +22 +22 комфорт 1007.1 1008.9
03 18.07 СВ 1 20 км 4/0
[Ac trans]
+20.9 +16.9 78 +26 +27 душно 1007.8 1009.6 +18.6
06 18.07 С 2 20 км ясно +27.5 +16.1 50 +31 +43 душно 1008.1 1009.9
09 18.07 СВ 2 20 км 1/0
[Ci fib]
+31.6 +14.4 35 +33 +51 опасность
солнечного
удара
1007.1 1008.9
12 18.07 С 2 20 км ясно +33.6 +13.2 29 +34 +45 очень
жарко
1006.2 1008.0
15 18.07 С 2 20 км 3/0
[Ac cast]
+31.5 +12.7 32 +32 +33 жарко 1006.3 1008.0 +33.6
18 18.07 СЗ 1 20 км 4/4 600 м
[Sc]
+25.5 +16.2 56 +29 +29 душно 1007.4 1009.2
21 18.07 С 2 20 км 6/4 600 м
[Sc Ci fib]
+23.2 +13.4 54 +26 +26 жарко 1007.8 1009.6
00 19.07 СЗ 1 20 км зарница 10/10 600 м
[Cb cap]
+22.3 +14.0 59 +25 +25 комфорт 1008.8 1010.6
03 19.07 СЗ 2 20 км 9/4 600 м
[Cb cap Ac cuf]
+22.2 +15.5 66 +26 +26 душно 1009.5 1011.3 +21.3
06 19.07 С 2 20 км 6/0
[Ac cast Ci sp]
+28.9 +15.7 45 +32 +41 душно 1011.2 1013.0
09 19.07 С 2 20 км 3/0
[Ci sp]
+33.2 +12.2 28 +33 +51 опасность
солнечного
удара
1011.0 1012.7
12 19.07 С 1 20 км 3/1 600 м
[Cu hum Ci sp]
+35.6 +13.0 26 +36 +47 очень
жарко
1010.8 1012.5
15 19.07 СВ 1 20 км 3/3 600 м
[Sc]
+33.0 +14.8 33 +35 +36 душно 1011.1 1012.8 +35.8
18 19.07 В 1 20 км 8/8 600 м
[Sc]
+28.2 +14.5 43 +30 +30 жарко 1012.1 1013.9
21 19.07 СЗ 1 20 км 8/8 600 м
[Sc]
+24.3 +17.1 64 +28 +28 душно 1013.5 1015.3
00 20.07 З 6-11
{11}
20 км зарница 9/9 600 м
[Cb cap]
+24.3 +16.9 63 +28 +28 душно 1015.5 1017.3
03 20.07 СЗ 3
{14}
10 км слаб. ливневой дождь {гроза} 9/8 600 м
[Cb cap Ac cuf]
+21.2 +18.3 84 +25 +26 комфорт 1016.2 1018.0 +20.9 0.5
06 20.07 С 2 20 км в посл. час ливневой дождь {гроза} 9/4 600 м
[Cb cap Ac cuf Ci fib]
+24.2 +17.9 68 +28 +33 душно 1016.7 1018.5
09 20.07 СЗ 2 20 км ясно +30.1 +15.2 40 +32 +51 опасность
солнечного
удара
1016.8 1018.6
12 20.07 С 2 20 км 1/1 600 м
[Cu hum]
+33.3 +14.6 32 +35 +44 душно 1016.4 1018.1
15 20.07 С 1 20 км 3/3 600 м
[Cu Sc]
+31.9 +15.4 37 +34 +35 душно 1016.2 1017.9 +33.7 0.3

 

Местоположение метеостанции Лиман (Астраханская область, Россия): широта 45.80 долгота 47.22 высота над уровнем моря -18 м.

В архиве по умолчанию представлена погода в Лимане за последнюю неделю. Архивные данные за месяц целиком и за предыдущие месяцы, начиная с января 2011 года, Вы можете получить, выбрав интересующий диапазон дат из раскрывающегося списка и нажав кнопку "Ввод!".


*Определитесь, кто Вы:
робот инопланетянин человек

Внимание! Время в таблицах - всемирное. Для получения местного времени необходимо прибавить поправку, которая равна 4 ч.

Смотрите также архив погоды в соседних городах и на ближайших метеорологических станциях:

Погода в Лагани (Калмыкия, Россия) (46 км)
Погода в Астрахани (Астраханская область, Россия) (79 км)
Погода в Артезиане (Калмыкия, Россия) (102 км)
Погода в Комсомольском (Калмыкия, Россия) (105 км)
Погода в Утте (Калмыкия, Россия) (112 км)
Погода в Зеленге (Астраханская область, Россия) (116 км)
Погода в Досанге (Астраханская область, Россия) (136 км)
Погода на Острове Тюлений (Дагестан, Россия) (149 км)
Погода в Яшкуле (Калмыкия, Россия) (151 км)
Погода в Юсте (Калмыкия, Россия) (163 км)

Пояснения к столбцам:

Ветер - указаны скорость ветра в м/с - средняя за 10 мин, порывы в срок и между сроками (в фигурных скобках) и направление, откуда дует ветер: С - северный, СВ - северо-восточный, В - восточный, ЮВ - юго-восточный, Ю - южный, ЮЗ - юго-западный, З - западный, СЗ - северо-западный.
Видимость - горизонтальная дальность видимости в метрах или километрах. При видимости от 1 до 10 км при отсутствии осадков обычно наблюдается дымка, при ухудшении видимости до 1 км и менее - туман. В сухую погоду видимость может ухудшаться дымом, пылью или мглою.
Явления - указаны атмосферные явления, наблюдавшиеся в срок или в последний час перед сроком; фигурными скобками обозначены явления, наблюдавшиеся между сроками (за 1-3 часа до срока); квадратными скобками обозначены град или гололедные отложения с указанием их диаметра в мм.
Облачность - указаны через наклонную черту общая и нижняя облачность в баллах и высота нижней границы облаков в метрах; квадратными скобками обозначены формы облаков: Ci - перистые, Cs - перисто-слоистые, Cc - перисто-кучевые, Ac - высококучевые, As - высокослоистые, Sc - слоисто-кучевые, Ns - слоисто-дождевые, Cu - кучевые, Cb - кучево-дождевые. Подробнее классификацию облаков см. в Атласе облаков (PDF).
T - Температура воздуха - температура, измеренная на высоте 2 м над землей.
Td - Температура точки росы - температура, при понижении до которой содержащийся в воздухе водяной пар достигнет насыщения.
f - Относительная влажность воздуха - влажноcть воздуха, измеренная на высоте 2 м над землей.
Te - Эффективная температура - температура, которую ощущает одетый по сезону человек в тени. Характеристика душности погоды. При расчете учитывается влияние влажности воздуха и скорости ветра на теплоощущения человека.
Tes - Эффективная температура на солнце - температура, которую ощущает человек, с поправкой на солнечный нагрев. Характеристика знойности погоды. Зависит от высоты солнца над горизонтом, облачности и скорости ветра. Ночью, в пасмурную погоду, а также при ветре 12 м/с и более поправка равна нулю.
P - Атмосферное давление - приведенное к уровню моря атмосферное давление.
Po - Атмосферное давление - измеренное на уровне метеостанции атмосферное давление.
Tmin - Минимальная температура - минимум температуры воздуха на высоте 2 м над землей.
Tmax - Максимальная температура - максимум температуры воздуха на высоте 2 м над землей.
R - Количество осадков - Количество выпавших осадков за период времени, мм. При наведении курсора мыши на число - период времени, за который выпало указанное количество осадков.
R24 - Количество осадков - Количество выпавших осадков за 24 часа, мм.
S - Снежный покров - Высота снежного покрова, см. При наведении курсора мыши на число - состояние снежного покрова и степень покрытия местности в баллах.